This demonstration page uses our WeatherBlox Daily Observations layout. Learn more.

Left ArrowRight Arrow

53.62937, 11.41316

Hourly Observations for March 5, 2018

Temp ( °F °C ) Dew Point ( °F °C ) Humidity (%) Winds ( mph kmh ) Pressure ( in mb ) Visibility ( mi km ) Precip ( " mm )
6:50 am 06:50 Mostly Cloudy 32 0 28 -2 87 87 SSE 9 15 29.41 996 5 8 N/A
7:20 am 07:20 Mostly Cloudy 32 0 28 -2 87 87 SSE 6 9 29.41 996 5 8 N/A
7:50 am 07:50 Mostly Cloudy 32 0 30 -1 93 93 SSE 6 9 29.41 996 5 8 N/A
8:50 am 08:50 Mostly Cloudy 34 1 32 0 93 93 SSE 6 9 29.41 996 4 7 N/A
9:20 am 09:20 Mostly Cloudy 34 1 32 0 93 93 S 6 9 29.41 996 4 7 N/A
9:50 am 09:50 Mostly Cloudy 34 1 32 0 93 93 SSE 7 11 29.41 996 4 7 N/A
10:20 am 10:20 Mostly Cloudy 36 2 32 0 87 87 SSE 6 9 29.41 996 4 7 N/A
10:50 am 10:50 Mostly Cloudy 37 3 34 1 87 87 SSE 5 7 29.41 996 4 7 N/A
11:20 am 11:20 Mostly Cloudy 39 4 34 1 81 81 SSE 6 9 29.41 996 5 8 N/A
11:50 am 11:50 Partly Cloudy 39 4 34 1 81 81 SE 8 13 29.41 996 6 9 N/A
12:20 pm 12:20 Mostly Sunny 43 6 36 2 76 76 SSE 5 7 29.41 996 6 9 N/A
12:50 pm 12:50 Mostly Sunny 45 7 36 2 71 71 SE 7 11 29.41 996 7 11 N/A
1:20 pm 13:20 Mostly Sunny 46 8 37 3 71 71 VRB 3 6 29.41 996 7 11 N/A
1:50 pm 13:50 Mostly Sunny 48 9 39 4 71 71 S 6 9 29.41 996 7 11 N/A
2:20 pm 14:20 Mostly Sunny 50 10 39 4 67 67 VRB 6 9 29.38 995 7 11 N/A
2:50 pm 14:50 Mostly Sunny 50 10 39 4 67 67 S 6 9 29.38 995 7 11 N/A
3:20 pm 15:20 Mostly Sunny 50 10 39 4 67 67 S 6 9 29.38 995 7 11 N/A
3:50 pm 15:50 Mostly Sunny 50 10 37 3 62 62 S 5 7 29.41 996 30 48 N/A
4:20 pm 16:20 Mostly Sunny 48 9 37 3 66 66 S 6 9 29.38 995 7 11 N/A
4:50 pm 16:50 Mostly Sunny 48 9 37 3 66 66 S 3 6 29.38 995 7 11 N/A
5:20 pm 17:20 Mostly Sunny 46 8 37 3 71 71 SSE 3 6 29.41 996 7 11 N/A
5:50 pm 17:50 Mostly Sunny 46 8 37 3 71 71 SSE 3 6 29.41 996 7 11 N/A
6:20 pm 18:20 Mostly Clear 43 6 37 3 81 81 SSE 5 7 29.41 996 7 11 N/A

Powered by AerisWeather